Regional Weather Roundup
Issued by NWS

Home | Current Version | Previous Version | Text Only | Print | Product List | Glossary Off
Versions: 1 2 3 4 5 6 7 8 9 10 11 12 13 14 15 16 17 18 19 20 21 22 23 24 25 26 27 28 29 30 31 32 33 34 35 36 37 38 39 40 41 42 43 44 45 46 47 48 49 50

000
ASUS43 KMPX 101810
RWRMN
WEATHER ROUNDUP FOR MINNESOTA
NATIONAL WEATHER SERVICE TWIN CITIES/CHANHASSEN MN
1200 PM CST SAT DEC 10 2016


NOTE: "FAIR" INDICATES FEW OR NO CLOUDS BELOW 12,000 FEET WITH NO
SIGNIFICANT WEATHER AND/OR OBSTRUCTIONS TO VISIBILITY. N/A MEANS
CURRENT SKY AND/OR WEATHER CONDITIONS ARE NOT AVAILABLE.

MNZ060>063-068>070-101900-
   Twin Cities Metro

CITY           SKY/WX    TMP DP  RH WIND       PRES   REMARKS
TWIN CITIES    CLOUDY     9   0  67 S5        30.41F WCI   1
6HR MIN TEMP:   4; 6HR MAX TEMP:   9;

ST PAUL        CLOUDY    10  -1  61 CALM      30.43F
CRYSTAL        MOSUNNY    8  -1  66 SE3       30.39F
BLAINE         PTSUNNY   10   3  72 CALM      30.39F
LAKEVILLE      MOSUNNY    7   1  78 E3        30.39F
EDEN PRAIRIE   MOSUNNY   10   2  69 VRB3      30.39F
6HR MIN TEMP:   3; 6HR MAX TEMP:  11;

SOUTH ST PAUL  CLOUDY    11   3  70 CALM      30.41F
LAKE ELMO      FAIR      12   3  67 CALM      30.40F
$$
MNZ001>005-007-008-013>017-022>024-027-028-101900-
   Northwest Minnesota

CITY           SKY/WX    TMP DP  RH WIND       PRES   REMARKS
BEMIDJI        SUNNY     -3  -8  82 SE3       30.34F
HALLOCK        SUNNY     -6  -9  84 SE5       30.42F WCI -17
ROSEAU         MOSUNNY   -4  -9  77 CALM      30.40F HAZE
WARROAD        SUNNY     -6  -9  84 CALM      30.39F
THIEF RVR FALL MOSUNNY    1  -5  75 SE3       30.40F
CROOKSTON      SUNNY     -6  -9  84 SE3       30.42F
FOSSTON        SUNNY      0  -9  65 N5        30.37F WCI -10
DETROIT LAKES  CLOUDY     0  -4  85 S6        30.35F WCI -12
MOORHEAD       CLOUDY    -2  -9  71 E5        30.40F WCI -12
PARK RAPIDS    CLOUDY    -1  -8  72 SE7       30.33F WCI -14
$$
MNZ006-009>011-018-025>026-101900-
   North Central Minnesota

CITY           SKY/WX    TMP DP  RH WIND       PRES   REMARKS
BAUDETTE       SUNNY     -1  -5  82 CALM      30.37F
FLAG ISLAND    SUNNY      0  -6  78 CALM      30.38F
INTL FALLS     SUNNY      2  -3  80 CALM      30.36F
6HR MIN TEMP: -15; 6HR MAX TEMP:   2;

WASKISH        SUNNY      0  -2  92 CALM      30.36F
BIG FORK       MOSUNNY    1  -6  71 CALM      30.35F
LONGVILLE      CLOUDY     1  -6  71 CALM      30.35F
GRAND RAPIDS   CLOUDY     4  -6  63 CALM      30.37F
CRANE LAKE     SUNNY      1  -6  71 CALM      30.39F
ORR            PTSUNNY    0  -8  71 CALM      30.33F
COOK           SUNNY      1  -6  71 CALM      30.35F
$$
MNZ012-019>021-037-101900-
   Northeast Minnesota

CITY           SKY/WX    TMP DP  RH WIND       PRES   REMARKS
DULUTH         CLOUDY     2  -4  76 SW3       30.34F
6HR MIN TEMP:   1; 6HR MAX TEMP:   4; 6HR PCP: TRACE;

ELY            MOSUNNY    1  -6  71 CALM      30.33F
HIBBING        MOSUNNY   -1  -8  72 CALM      30.35F
EVELETH        MOSUNNY    2  -8  63 S3        30.35F
DULUTH HARBOR  CLOUDY     9  -2  61 CALM      30.44F
TWO HARBORS    SUNNY      9  -2  61 NW3       30.35F
SILVER BAY     SUNNY      9  -6  52 W3        30.35F
GRAND MARAIS     N/A     13  -1  54 VRB5      30.40F WCI   5
G MARAIS ARPRT SUNNY      3  -8  60 W5        30.27F WCI  -6
$$
MNZ029>031-032-039>041-046>048-054>057-064-101900-
   West Central Minnesota

CITY           SKY/WX    TMP DP  RH WIND       PRES   REMARKS
FERGUS FALLS   CLOUDY    -4  -9  77 CALM      30.43F
WHEATON        CLOUDY     1  -4  78 E3        30.40F
MORRIS         CLOUDY     0  -6  78 SE3       30.36F
ALEXANDRIA     CLOUDY     0  -5  79 S7        30.34F WCI -13
ELBOW LAKE     CLOUDY    -4  -8  85 CALM      30.36F
WADENA         CLOUDY    -2  -8  78 CALM      30.35S
GLENWOOD       LGT SNOW   1  -2  85 SE5       30.35F WCI  -8
APPLETON       LGT SNOW   3  -2  78 SE3       30.38F
BENSON         CLOUDY     3  -4  72 CALM      30.37F
ORTONVILLE     LGT SNOW   0  -6  78 CALM      30.37F
MADISON        LGT SNOW   7   0  72 E5        30.38F VSB 1   WCI  -2
WILLMAR        FAIR       7   1  78 CALM      30.38F
$$
MNZ033>034-036-042>043-049>051-058-059-101900-
   Central Minnesota

CITY           SKY/WX    TMP DP  RH WIND       PRES   REMARKS
ST CLOUD       CLOUDY     6  -1  73 VRB3      30.38F
6HR MIN TEMP:  -2; 6HR MAX TEMP:   6;

PAYNESVILLE    CLOUDY     5   0  80 CALM      30.38F
AITKIN         MIX PCPN   7  -2  66 CALM      30.34F
PINE RIVER     CLOUDY     1  -2  85 CALM      30.37F
BRAINERD       CLOUDY     5  -2  72 CALM      30.35F
LONG PRAIRIE   PTSUNNY    3  -4  72 E3        30.36F
LITTLE FALLS   CLOUDY     5  -4  66 CALM      30.38F
LITCHFIELD     CLOUDY     9   3  78 CALM      30.38F
BUFFALO        MOSUNNY    8   2  76 E5        30.41F WCI  -1
MAPLE LAKE     MOSUNNY    9   3  79 CALM      30.40F
HUTCHINSON     PTSUNNY    9   3  77 E5        30.38F WCI   0
$$
MNZ037-044-045-052-053-101900-
   East Central Minnesota

CITY           SKY/WX    TMP DP  RH WIND       PRES   REMARKS
PRINCETON      CLOUDY    10   1  67 SE3       30.37F
MORA           SUNNY      9   0  66 CALM      30.39F
CAMBRIDGE      CLOUDY     9   0  66 CALM      30.37F
RUSH CITY      MOSUNNY   10   1  67 CALM      30.40F
MOOSE LAKE     CLOUDY     9   0  66 CALM      30.36F
HINCKLEY       MOCLDY    12   3  67 S3        30.39F
CLOQUET        CLOUDY     3  -6  66 CALM      30.35F
MCGREGOR       CLOUDY     5   0  78 CALM      30.36F
$$
MNZ071>073-080-081-089-090-097-098-101900-
   Southwest Minnesota

CITY           SKY/WX    TMP DP  RH WIND       PRES   REMARKS
MONTEVIDEO     LGT SNOW   5   0  78 CALM      30.39F
GRANITE FALLS  LGT SNOW   7   1  79 CALM      30.40F
CANBY          LGT SNOW   5   1  81 CALM      30.36F VSB 1
MARSHALL       LGT SNOW   6   2  83 E6        30.37F VSB 3/4 WCI  -4
REDWOOD FALLS  LGT SNOW   7   0  73 CALM      30.38F
OLIVIA         LGT SNOW   9   3  78 SE5       30.37F WCI   0
PIPESTONE      LGT SNOW   9   5  85 SE10      30.26F VSB 3/4 WCI  -6
WINDOM         LGT SNOW   9   5  85 MISG      30.33S VSB 1
WORTHINGTON    LGT SNOW  10   7  85 E10       30.30F FOG     WCI  -3
JACKSON        LGT SNOW   9   5  85 E7        30.33R VSB 1   WCI  -3
TRACY          LGT SNOW   8   4  82 E6        30.35S WCI  -2
SLAYTON        LGT SNOW   7   4  86 E8        30.31F VSB 1   WCI  -6
$$
MNZ065>067-074>077-082>085-091>093-101900-
   South Central Minnesota

CITY           SKY/WX    TMP DP  RH WIND       PRES   REMARKS
MANKATO        LGT SNOW   9   3  78 E8        30.37F WCI  -4
NEW ULM        LGT SNOW   7   0  72 E3        30.37F
ST JAMES       LGT SNOW   9   3  78 SE6       30.38S WCI  -1
FAIRMONT       LGT SNOW   9   5  85 SE8       30.36S VSB 3/4 WCI  -4
GLENCOE        CLOUDY    10   5  79 CALM      30.38F
FARIBAULT      CLOUDY    10   3  72 E3        30.38F
OWATONNA       LGT SNOW  10   3  72 E7        30.36F WCI   0
WASECA         LGT SNOW  10   5  79 E8        30.37F WCI  -1
ALBERT LEA     LGT SNOW  12   9  85 E8        30.35F WCI   1
$$
MNZ078>079-086>088-094>096-101900-
   Southeast Minnesota

CITY           SKY/WX    TMP DP  RH WIND       PRES   REMARKS
ROCHESTER      CLOUDY     7   3  84 SE6       30.37F WCI  -3
6HR MIN TEMP:   2; 6HR MAX TEMP:   8; 6HR PCP: TRACE;

RED WING       CLOUDY    10   1  67 SE3       30.40F
STANTON        CLOUDY    11   4  73 SE3       30.39F
DODGE CENTER   LGT SNOW   9   1  72 SE6       30.36F WCI  -1
WINONA         CLOUDY    14   9  79 CALM      30.44F
AUSTIN         LGT SNOW  10   5  79 E7        30.36F WCI   0
PRESTON        LGT SNOW   9   3  76 SE3       30.38F
$$
ABBREVIATIONS USED IN REMARKS
   TC - TEMPERATURES IN CELSIUS
  WCI - WIND CHILL INDEX
   HX - HEAT INDEX
  VSB - VISIBILITY
$$



USA.gov is the U.S. government's official web portal to all federal, state and local government web resources and services.